| time (UTC) | temp C | wind direction | speed KPH | gust KPH | rain 1hr cm | rain 24hr cm | rain mn cm | humidity % | barometer mb |
| 20260507101833 | 14 | 83 | 0.0 | 3.2 | 0.00 | 0.00 | 0.00 | 96 | 1019.0 |
| 20260507100832 | 16 | 83 | 0.0 | 3.2 | 0.00 | 0.00 | 0.00 | 96 | 1019.0 |
| 20260507095832 | 12 | 83 | 0.0 | 3.2 | 0.00 | 0.00 | 0.00 | 98 | 1019.0 |
| 20260507094831 | 14 | 83 | 0.0 | 3.2 | 0.00 | 0.00 | 0.00 | 98 | 1019.0 |
| 20260507093830 | 16 | 83 | 0.0 | 3.2 | 0.00 | 0.00 | 0.00 | 98 | 1019.0 |
| 20260507092829 | 12 | 20 | 0.0 | 3.2 | 0.00 | 0.00 | 0.00 | 98 | 1019.0 |
| 20260507091829 | 15 | 20 | 0.0 | 3.2 | 0.00 | 0.00 | 0.00 | 98 | 1019.0 |
| 20260507090828 | 17 | 20 | 0.0 | 3.2 | 0.00 | 0.00 | 0.00 | 98 | 1019.0 |
| 20260507085827 | 13 | 20 | 0.0 | 3.2 | 0.00 | 0.00 | 0.00 | 97 | 1019.0 |
| 20260507084827 | 15 | 20 | 0.0 | 3.2 | 0.00 | 0.00 | 0.00 | 97 | 1019.0 |
| 20260507083826 | 17 | 20 | 0.0 | 3.2 | 0.00 | 0.00 | 0.00 | 97 | 1019.0 |
| 20260507082825 | 12 | 16 | 0.0 | 3.2 | 0.03 | 0.00 | 0.00 | 97 | 1019.0 |
| 20260507081824 | 14 | 16 | 0.0 | 3.2 | 0.00 | 0.00 | 0.00 | 97 | 1019.0 |
| 20260507080824 | 16 | 16 | 0.0 | 3.2 | 0.03 | 0.00 | 0.00 | 97 | 1019.0 |
| 20260507075823 | 13 | 16 | 0.0 | 3.2 | 0.03 | 0.00 | 0.00 | 98 | 1019.0 |
| 20260507074822 | 15 | 16 | 0.0 | 3.2 | 0.00 | 0.00 | 0.00 | 98 | 1019.0 |
| 20260507073821 | 17 | 16 | 0.0 | 3.2 | 0.03 | 0.00 | 0.00 | 98 | 1019.0 |
| 20260507072820 | 16 | 7 | 0.0 | 4.8 | 0.05 | 0.00 | 0.00 | 98 | 1019.0 |
| 20260507071820 | 12 | 7 | 0.0 | 4.8 | 0.05 | 0.00 | 0.00 | 98 | 1019.0 |
| 20260507070819 | 14 | 7 | 0.0 | 4.8 | 0.00 | 0.00 | 0.00 | 98 | 1019.0 |
| 20260507065818 | 16 | 7 | 0.0 | 4.8 | 0.05 | 0.00 | 0.00 | 98 | 1019.0 |
| 20260507064817 | 15 | 7 | 0.0 | 4.8 | 0.05 | 0.00 | 0.00 | 98 | 1019.0 |
| 20260507063817 | 12 | 7 | 0.0 | 4.8 | 0.05 | 0.00 | 0.00 | 98 | 1019.0 |
| 20260507062816 | 15 | 103 | 0.0 | 4.8 | 0.00 | 0.00 | 0.00 | 98 | 1020.0 |
| 20260507061815 | 17 | 103 | 0.0 | 4.8 | 0.05 | 0.00 | 0.00 | 98 | 1020.0 |
| 20260507060814 | 13 | 103 | 0.0 | 4.8 | 0.05 | 0.00 | 0.00 | 97 | 1020.0 |
| 20260507055814 | 15 | 103 | 0.0 | 4.8 | 0.00 | 0.00 | 0.00 | 97 | 1020.0 |
| 20260507054813 | 17 | 103 | 0.0 | 4.8 | 0.05 | 0.00 | 0.00 | 97 | 1020.0 |
| 20260507053812 | 16 | 103 | 0.0 | 4.8 | 0.05 | 0.00 | 0.00 | 97 | 1020.0 |
| 20260507052812 | 14 | 91 | 1.6 | 4.8 | 0.05 | 0.00 | 0.00 | 97 | 1021.0 |
| 20260507051811 | 12 | 91 | 1.6 | 4.8 | 0.05 | 0.00 | 0.00 | 97 | 1021.0 |
| 20260507050810 | 14 | 91 | 1.6 | 4.8 | 0.00 | 0.00 | 0.00 | 97 | 1021.0 |
| 20260507045809 | 16 | 91 | 1.6 | 4.8 | 0.05 | 0.00 | 0.00 | 97 | 1021.0 |
| 20260507044809 | 15 | 91 | 1.6 | 4.8 | 0.05 | 0.00 | 0.00 | 97 | 1021.0 |
| 20260507043808 | 12 | 54 | 1.6 | 4.8 | 0.05 | 0.00 | 0.00 | 97 | 1021.0 |
| 20260507042807 | 15 | 54 | 1.6 | 4.8 | 0.00 | 0.00 | 0.00 | 97 | 1021.0 |
| 20260507041807 | 17 | 54 | 1.6 | 4.8 | 0.05 | 0.00 | 0.00 | 97 | 1021.0 |
| 20260507040806 | 15 | 54 | 1.6 | 4.8 | 0.00 | 0.00 | 0.00 | 97 | 1021.0 |
| 20260507035805 | 17 | 54 | 1.6 | 4.8 | 0.05 | 0.00 | 0.00 | 97 | 1021.0 |
| 20260507034805 | 15 | 54 | 1.6 | 4.8 | 0.05 | 0.00 | 0.00 | 99 | 1021.0 |